Location: Glencliff
(36.1226°N, 86.7183°W)
Time: 05:59:05
(UTC+00:00)

SJ 16-02 - Pass Details

Date: 25 August 2019
Orbit: 605 x 618 km, 75.0° (Epoch: 19 September)

Event Time Altitude Azimuth Distance (km) Brightness Sun altitude
Exits shadow 02:26:55 - 207° (SSW) 2,505 4.4 -23.1°
Reaches altitude 10° 02:28:18 10° 211° (SSW) 1,959 3.9 -23.3°
Maximum altitude 02:32:35 54° 288° (WNW) 747 2.0 -24.0°
Drops below altitude 10° 02:36:55 10° 7° (N) 1,980 4.3 -24.8°
Sets 02:39:13 0° 12° (NNE) 2,891 5.1 -25.1°
